Theta_e
336 324 321 321 312 307 305 305 309 308 310 314 315 314 314 317 315 317 342 343 340 341 357 360 361 361 362 363 364 364 363 363 363 362 362 362 362 363 362 361 359 357 354 351 346 342 341 340 338
330 322 320 314 309 302 304 307 307 310 312 316 316 315 314 313 322 327 328 344 339 345 357 356 360 360 362 362 363 363 363 363 363 362 362 362 362 362 362 360 358 355 353 348 345 343 341 340 339
328 322 311 312 309 305 305 307 309 311 313 313 314 319 316 316 326 332 338 343 340 347 355 357 360 359 361 361 361 361 362 362 363 363 362 362 362 361 360 359 358 354 350 346 345 343 342 341 340
324 318 313 302 304 310 309 311 311 311 313 313 315 315 319 326 329 339 345 344 339 345 352 360 359 359 360 361 360 360 361 362 362 362 362 361 361 359 358 357 357 355 351 348 346 344 343 342 341
323 316 306 301 301 306 311 312 311 310 311 312 316 315 317 326 335 343 344 344 338 342 349 362 359 359 361 361 360 359 359 359 360 361 361 360 359 358 357 357 357 355 353 351 347 346 347 346 343
313 314 303 301 302 304 308 311 313 313 313 314 315 317 319 327 333 339 343 343 340 340 348 359 360 359 360 360 360 359 358 358 358 358 358 358 357 357 356 356 356 354 353 352 350 349 348 347 346
311 309 304 305 304 304 306 312 310 314 314 314 319 315 321 323 332 340 343 341 339 341 346 356 359 361 360 360 359 358 358 358 358 357 357 357 357 357 356 356 355 354 353 352 350 349 348 348 346
315 310 305 306 304 305 310 311 312 313 314 320 321 314 316 322 327 334 342 339 337 341 344 351 354 355 357 358 359 358 358 358 357 358 358 357 357 357 356 354 354 354 353 352 351 349 349 348 347
316 307 303 305 305 307 312 309 314 318 316 318 319 320 322 324 324 327 334 337 336 338 343 348 348 350 352 351 356 358 358 358 358 358 358 356 352 355 354 352 353 354 353 353 351 350 349 348 346
310 305 305 310 311 310 312 311 313 312 313 315 319 322 322 322 322 323 327 335 335 336 339 344 347 348 349 345 353 357 355 356 356 355 356 355 352 353 351 353 354 354 353 353 352 351 350 347 338
308 304 308 309 312 314 312 312 313 311 310 314 317 317 318 320 321 321 325 329 337 336 338 343 350 352 351 347 349 351 350 351 352 355 357 357 352 353 353 351 353 353 352 347 348 346 343 339 338
302 307 308 309 312 311 309 313 310 311 312 314 319 318 317 318 318 319 322 328 329 337 337 340 347 353 355 349 348 348 347 348 349 352 358 356 353 353 352 347 347 350 348 349 346 343 344 342 341
302 304 305 307 307 307 309 308 308 309 313 310 314 315 315 316 317 320 323 327 329 331 338 341 345 351 354 353 348 348 347 346 348 350 355 354 351 350 349 348 345 344 345 343 344 342 341 342 341
303 303 303 305 305 306 304 305 307 308 309 308 314 317 317 315 316 317 321 326 332 332 333 337 344 348 351 351 354 352 349 347 347 345 347 355 351 351 346 347 345 342 342 340 341 341 341 341 341
302 299 302 303 304 303 305 301 302 308 307 307 307 310 315 316 321 317 317 320 323 327 331 332 344 349 350 350 351 351 346 345 344 342 349 349 353 352 350 343 342 340 343 344 343 343 343 341 342
298 299 295 301 300 302 301 297 304 307 306 305 305 305 309 310 316 316 316 318 322 324 331 332 327 337 350 350 349 346 345 344 344 343 343 348 350 351 349 342 341 343 342 341 341 341 342 343 343
298 292 294 296 301 300 300 298 304 306 306 305 306 305 306 309 312 316 315 317 319 323 329 324 336 332 341 349 349 351 353 346 343 343 341 346 346 347 347 341 342 347 341 341 342 343 345 345 345
293 293 294 294 299 299 298 298 303 305 305 305 306 306 305 307 310 313 314 315 318 322 326 329 329 332 339 345 352 347 346 345 345 342 343 346 345 345 345 342 343 343 339 339 344 347 348 347 347
296 294 293 296 299 297 297 298 301 304 304 304 305 305 307 307 310 312 313 315 317 326 326 328 327 331 330 331 335 340 343 344 343 346 348 345 345 346 346 341 343 342 343 344 350 349 348 347 348
295 294 294 297 298 297 297 296 300 302 303 304 305 306 306 307 309 309 311 315 319 320 323 326 327 329 329 332 341 335 341 341 347 348 350 347 345 346 345 347 343 346 341 349 351 351 346 347 349
295 293 294 293 296 298 296 295 298 301 303 304 305 306 307 307 306 307 310 315 318 318 320 322 324 327 329 331 330 337 341 343 343 344 347 350 349 348 348 348 346 349 350 347 352 352 350 344 347
291 296 294 293 293 289 296 287 295 299 300 301 303 304 306 306 306 309 312 313 315 317 319 321 323 325 325 329 330 331 326 333 334 342 347 352 354 350 349 351 352 351 351 356 353 352 351 350 345
294 297 295 295 293 292 292 290 294 298 296 299 302 303 305 306 308 310 311 312 314 316 318 320 323 325 326 328 330 328 331 330 333 333 345 361 360 354 351 352 352 354 352 357 356 353 354 350 347
298 296 296 295 293 286 291 291 291 295 297 300 302 302 304 307 309 311 312 313 314 317 317 319 322 323 325 326 328 330 331 335 331 338 341 347 349 353 355 352 355 357 358 356 354 355 354 352 350
297 294 287 285 286 285 292 289 292 297 299 299 300 302 304 306 309 309 311 312 314 314 318 321 321 322 324 325 325 327 330 334 340 341 333 342 343 345 355 360 359 356 358 357 356 356 355 352 347
295 294 287 280 283 286 292 286 294 299 300 301 303 304 305 307 308 310 311 313 314 316 318 321 320 321 323 324 325 327 329 327 328 336 335 334 339 345 358 361 358 359 357 356 356 353 351 350 348
294 290 295 289 290 286 289 293 297 299 298 300 301 303 304 306 308 309 311 313 315 316 318 317 318 320 321 323 324 326 327 330 329 338 345 338 347 344 351 355 357 357 356 354 357 350 351 351 352
296 297 288 289 281 280 287 288 290 294 296 298 300 302 304 307 306 309 311 313 315 317 317 317 317 316 319 321 323 324 326 328 329 333 338 342 348 348 347 354 356 355 354 354 354 353 354 353 351
293 291 292 292 290 284 283 288 297 296 298 299 301 303 305 305 306 309 311 312 314 315 315 316 316 316 319 319 321 324 326 328 329 332 333 339 346 345 344 350 353 353 351 353 355 357 353 351 350
296 293 293 286 286 289 288 288 300 299 300 301 302 304 305 306 308 310 310 312 312 314 313 313 315 315 318 319 320 323 326 329 333 333 337 340 341 343 341 348 349 348 350 354 354 352 350 349 348
Wind_Speed
11 3 2 4 7 6 12 3 5 3 3 2 5 7 9 14 11 4 5 5 12 19 22 23 20 17 16 15 16 17 17 18 17 17 17 16 16 15 14 13 12 12 11 9 8 8 8 8 8
8 2 1 2 10 10 8 5 11 3 7 9 7 7 11 11 9 15 10 9 14 18 20 24 20 18 14 16 16 17 17 17 18 18 18 17 16 15 14 13 13 13 12 11 10 9 9 8 7
5 5 5 6 13 18 10 5 7 4 7 6 7 8 5 5 12 15 12 4 16 19 20 21 22 20 16 13 15 16 18 19 18 18 18 17 16 15 14 14 12 13 12 11 11 9 9 9 8
4 5 4 9 12 18 12 9 1 8 7 3 6 9 3 6 17 18 17 10 16 21 22 23 25 23 21 17 15 15 16 18 18 18 18 18 17 16 15 14 13 12 12 12 11 11 10 9 8
5 4 9 11 16 8 16 13 8 9 7 8 7 9 8 14 18 20 14 9 19 21 21 22 23 22 20 18 17 16 15 15 16 17 17 17 16 15 14 14 13 12 12 11 11 10 9 8 9
7 6 10 13 16 10 13 12 18 19 10 9 6 11 3 15 20 20 14 7 16 20 19 19 20 20 18 16 16 14 14 13 13 14 15 15 14 12 12 12 12 11 11 11 10 10 9 8 8
14 10 16 18 14 14 15 12 18 18 15 11 10 13 5 15 17 15 10 4 13 18 16 17 20 19 18 15 11 12 12 11 10 10 10 12 12 11 11 11 11 11 10 10 9 8 8 7 8
9 11 21 18 14 20 11 10 17 18 18 3 7 7 12 16 15 12 7 4 10 14 16 17 18 19 18 16 13 11 9 9 9 9 9 10 11 10 11 9 10 10 10 9 10 9 9 8 8
12 13 17 21 19 15 9 12 14 9 19 17 7 11 12 17 17 12 11 3 9 12 14 15 18 18 17 17 15 11 11 10 8 8 8 9 10 12 13 12 11 11 10 9 10 10 10 9 9
13 15 24 19 16 15 11 10 2 6 13 18 18 15 9 18 15 13 9 9 11 11 14 13 15 16 16 13 14 15 14 13 13 13 13 11 12 10 10 10 10 11 11 10 11 11 11 11 10
15 21 18 17 12 15 14 14 7 10 17 15 18 11 16 17 14 12 8 9 7 12 11 12 11 11 14 13 10 8 9 10 10 15 12 12 9 8 7 6 8 9 12 9 12 11 10 12 10
14 14 16 14 15 10 16 14 12 14 15 14 14 14 18 14 15 14 11 3 5 6 11 13 12 9 11 9 9 9 9 9 9 11 13 9 8 8 8 7 8 8 8 10 9 8 10 11 11
16 17 9 13 12 16 16 17 18 17 13 8 7 15 12 12 12 14 8 4 3 3 1 13 14 14 12 12 9 9 9 10 10 9 12 11 10 9 9 8 7 7 8 8 8 9 8 9 11
5 10 12 15 16 16 18 20 21 18 5 11 17 26 21 12 10 12 7 5 2 5 5 6 13 12 14 12 12 9 9 10 10 10 10 14 10 9 9 9 9 8 8 8 8 8 8 9 9
9 14 16 16 17 18 16 21 25 19 5 15 16 18 15 17 20 12 7 4 3 2 7 4 7 11 11 13 12 9 11 12 10 11 11 13 14 11 11 9 8 8 7 7 7 8 8 8 8
11 9 15 10 4 12 11 20 2 5 6 8 5 7 10 9 14 8 5 2 4 2 5 3 3 4 7 10 10 10 9 11 10 10 10 14 14 14 11 9 8 6 5 8 7 8 8 9 8
11 14 8 7 5 6 11 13 7 7 10 10 9 7 9 7 7 7 3 3 5 8 5 7 5 6 3 2 5 9 10 9 10 12 11 13 14 13 10 8 5 5 7 6 7 7 9 9 8
7 9 9 11 5 8 15 17 16 14 16 16 14 12 10 9 8 6 3 1 4 6 8 6 5 0 7 2 4 4 8 8 10 11 11 11 11 12 11 7 7 9 7 7 8 9 8 10 8
9 10 12 10 7 12 16 17 18 18 18 20 18 16 15 10 9 6 3 1 4 4 7 8 8 10 4 3 6 5 7 8 9 10 12 16 14 14 12 9 12 11 12 9 8 9 12 10 7
10 13 13 9 10 11 16 20 20 20 20 18 16 17 16 13 12 5 4 3 5 6 7 9 9 8 7 2 4 4 7 5 6 8 10 14 16 16 15 14 13 12 8 11 11 12 10 10 8
13 13 11 13 12 16 19 21 20 9 10 11 13 9 12 7 4 2 3 5 8 8 9 7 7 9 9 10 6 2 6 8 12 6 8 13 16 19 18 18 12 12 9 10 11 12 15 10 8
14 5 8 12 14 13 7 10 11 11 12 5 5 6 6 4 3 1 2 4 8 8 8 9 8 7 5 6 7 6 6 10 11 8 8 13 18 19 19 16 15 13 12 10 10 11 14 13 9
15 3 12 13 16 18 19 13 14 3 9 6 5 2 2 3 2 2 3 5 6 6 9 10 10 10 8 7 8 8 11 11 11 11 9 11 14 18 16 16 16 13 11 11 12 13 14 11 9
9 12 15 17 13 15 20 16 10 7 8 12 9 7 2 4 4 3 3 6 7 8 7 9 11 11 10 9 10 12 16 12 14 11 10 17 14 11 16 17 14 13 12 13 13 14 15 13 10
11 14 11 12 12 12 7 7 12 5 5 3 11 10 8 6 5 6 9 9 7 10 11 10 8 11 13 12 11 13 16 16 18 16 14 15 11 11 13 15 14 13 14 14 13 14 13 13 10
11 10 11 13 12 9 4 8 1 4 3 9 9 6 4 6 6 9 12 9 10 11 12 14 14 14 13 15 14 13 15 12 14 16 14 13 12 10 11 13 14 15 16 15 14 12 11 11 10
11 10 9 16 17 16 13 13 12 14 8 8 8 4 7 4 10 12 10 8 10 12 12 12 15 16 16 15 14 15 15 15 14 17 13 12 11 11 12 15 16 16 16 16 14 11 11 11 11
16 10 8 10 9 14 10 11 8 11 3 3 7 11 10 10 15 14 13 11 10 11 13 14 15 18 17 18 16 15 16 16 16 15 16 15 11 12 13 14 16 16 16 14 15 12 13 12 11
11 14 12 12 12 11 12 4 9 3 6 10 10 11 10 16 16 15 13 13 14 13 14 15 17 19 17 17 18 16 17 18 17 16 17 16 13 14 16 16 16 16 17 18 17 14 14 14 13
14 18 17 12 15 14 13 14 5 3 6 7 14 17 19 15 16 14 14 14 13 14 16 16 16 18 18 18 17 18 17 19 18 18 17 16 14 14 16 17 17 18 18 18 17 16 14 15 15
Wind_Direction
264 297 235 249 255 230 256 203 284 154 152 37 312 271 283 312 305 356 65 158 152 163 158 171 164 165 168 165 163 157 158 157 159 158 157 155 152 153 153 150 153 154 152 152 153 148 146 143 141
313 274 198 268 264 240 233 261 234 239 358 327 295 269 254 280 352 337 283 146 156 159 163 169 168 165 173 172 166 164 162 162 161 160 159 158 155 157 154 155 162 164 161 160 159 159 157 152 149
261 262 240 238 208 249 264 229 290 59 325 315 302 326 322 345 359 334 332 283 174 166 169 166 169 164 173 184 171 170 168 166 165 163 162 160 159 160 161 163 167 171 169 165 165 166 166 164 160
215 191 196 245 236 230 261 242 354 268 298 295 302 301 310 51 344 335 310 260 196 174 173 155 170 169 172 181 183 178 174 169 171 168 165 162 164 165 167 169 171 176 174 172 172 176 176 172 164
217 251 243 228 240 207 227 241 250 258 302 299 339 333 317 12 357 349 322 227 195 183 175 163 173 170 173 179 184 183 180 180 177 170 169 166 170 170 173 171 174 180 178 180 181 186 183 179 174
222 273 240 237 229 213 231 226 229 264 279 304 289 319 344 11 3 354 335 232 200 180 175 164 172 173 172 183 185 187 183 186 184 178 174 168 168 172 178 176 179 186 185 186 188 190 191 185 186
245 225 247 251 238 235 230 216 232 235 256 267 348 308 333 7 6 359 345 260 203 169 180 167 179 177 167 175 190 195 191 184 182 182 181 169 169 171 186 187 184 190 193 194 196 194 203 201 200
245 250 252 243 238 245 226 249 227 242 246 263 263 310 327 347 348 339 12 259 196 178 184 175 183 184 184 181 179 192 201 189 180 182 178 177 170 177 191 190 193 197 202 200 203 194 208 211 217
232 240 243 239 228 244 239 226 228 241 239 248 271 294 320 325 324 339 358 199 209 190 191 189 183 186 190 188 182 186 191 198 187 185 184 176 201 190 197 202 178 198 203 210 215 202 206 213 224
220 233 242 249 252 251 232 217 225 230 215 240 261 278 315 325 324 331 359 348 198 204 198 202 191 189 191 192 189 201 201 208 208 205 200 216 217 206 219 198 182 193 204 212 218 213 207 214 235
224 247 260 250 270 260 259 220 220 244 246 248 235 304 307 320 318 325 341 39 293 209 197 218 207 196 203 194 192 193 207 205 209 215 212 208 215 207 214 216 199 215 200 218 204 211 227 226 238
246 246 262 268 248 247 248 251 239 244 263 347 246 295 294 304 315 313 328 34 7 197 196 201 208 205 212 203 198 203 206 207 211 207 208 218 215 204 224 223 214 207 209 213 228 217 228 228 237
243 257 242 253 258 256 263 250 253 256 263 310 246 270 278 311 307 310 321 317 88 42 172 209 202 200 191 209 212 213 216 211 218 216 205 214 214 213 211 223 235 224 224 214 226 230 227 225 234
349 273 260 254 254 253 256 261 255 247 230 236 243 245 258 276 311 313 309 311 290 56 52 325 207 200 203 199 204 203 217 223 218 223 217 210 224 212 216 215 220 226 230 235 234 230 231 225 236
268 265 249 243 247 249 251 258 251 253 232 245 253 284 280 282 271 268 291 338 2 86 43 42 296 218 208 218 220 223 213 211 217 223 217 215 216 218 219 217 225 234 224 238 241 241 228 244 228
254 254 261 219 261 234 238 258 179 124 228 239 267 302 264 275 256 271 265 89 14 13 130 22 31 310 225 213 226 238 237 225 224 224 222 221 220 225 208 222 212 230 253 234 230 236 237 236 233
206 263 212 254 203 277 231 270 205 213 260 262 260 272 281 253 224 234 243 38 3 355 49 29 341 359 40 248 247 238 236 236 233 217 225 219 221 220 222 234 205 218 238 254 242 243 247 240 242
254 236 217 257 221 257 270 258 256 254 256 259 261 259 259 266 268 221 216 8 32 7 11 20 223 32 358 25 244 263 269 250 244 239 228 221 221 212 199 213 220 206 219 233 240 247 245 255 236
285 271 270 274 278 281 276 275 274 269 263 260 251 244 249 235 244 216 208 332 6 16 11 0 20 336 287 284 281 242 248 233 251 248 222 225 213 207 195 202 205 208 197 203 230 245 242 240 235
252 262 264 280 262 280 282 277 280 269 263 258 263 251 235 233 200 214 292 344 5 8 13 12 353 347 322 254 210 289 300 292 251 257 252 235 221 211 199 201 204 200 192 199 203 225 240 234 213
247 264 284 291 304 276 268 274 252 244 250 247 256 259 238 214 237 176 304 347 353 358 354 351 345 337 331 324 314 287 276 276 264 264 264 245 223 208 205 206 210 190 197 197 203 215 226 230 212
274 268 279 280 282 285 324 289 283 265 246 246 165 173 192 194 165 241 323 348 339 332 332 322 322 322 311 315 306 301 269 275 260 282 258 242 222 214 208 211 200 191 200 198 199 212 225 231 215
270 273 278 283 282 284 267 256 269 219 203 183 183 85 318 312 213 226 317 323 316 312 318 316 316 308 314 295 266 265 249 255 259 239 252 260 233 222 215 199 200 203 214 193 204 210 214 207 232
276 265 261 258 261 259 252 249 262 184 227 165 187 337 228 286 292 235 246 275 292 305 303 297 299 294 294 279 269 249 260 264 259 250 226 230 236 204 214 206 207 210 213 200 197 210 211 221 209
241 257 269 259 209 253 88 272 261 260 256 237 310 296 269 282 258 269 307 305 300 296 303 299 300 295 297 283 266 253 243 249 252 248 242 243 231 232 209 207 199 204 210 204 200 197 206 200 197
249 256 276 284 274 280 229 257 113 40 266 305 285 294 270 229 302 294 302 293 294 305 305 308 313 307 298 290 278 264 254 250 248 241 245 242 235 227 230 205 201 204 200 204 203 195 201 184 195
263 228 290 284 268 266 257 253 237 217 221 221 239 219 270 280 305 300 297 274 282 293 299 303 301 298 300 290 281 272 261 255 258 265 255 238 244 234 224 211 206 197 206 195 188 198 191 174 196
251 279 218 209 263 261 252 256 266 187 311 248 241 258 277 273 309 305 301 291 275 286 293 297 299 301 288 291 278 273 269 262 260 258 255 251 239 228 238 214 206 193 198 189 183 184 181 181 197
183 226 227 281 257 263 279 272 79 235 284 299 293 291 278 300 296 289 290 291 287 293 292 300 299 301 287 286 281 270 272 268 260 256 254 248 233 219 222 213 201 193 190 190 191 181 171 189 193
259 275 243 231 234 225 265 278 1 15 333 297 268 274 284 288 282 280 287 293 291 285 304 299 295 294 282 283 274 271 272 269 254 252 249 242 230 219 217 210 195 191 192 188 187 178 171 192 188